Location: �perlecques
(50.8057°N, 2.1521°E)
Time: 11:09:12
(UTC+00:00)

Vanguard 1 Rocket - Pass Details

Date: 05 August 2021
Orbit: 650 x 4226 km, 34.3° (Epoch: 17 September)

Event Time Altitude Azimuth Distance (km) Brightness Sun altitude
Rises 11:44:13 0° 258° (WSW) 7,696 12.2 55.9°
Reaches altitude 10° 11:50:40 10° 252° (WSW) 6,150 11.9 56.0°
Maximum altitude 12:05:08 35° 195° (SSW) 3,012 11.6 56.0°
Drops below altitude 10° 12:13:25 10° 134° (SE) 3,517 10.8 55.9°
Sets 12:16:01 0° 124° (SE) 4,155 11.0 55.8°
